• Join FlightAware (Why Join?)
  • Login
  • US Flag GB Flag 
11:23 EDT


 

Airport Tracker/Info


-or-


 

Live Flight TrackerFlight Track Log ✈ XOJ552 ✈ 07-Jul-2013 ✈ KCXO - KCOE

Flight Track Log - Related Links

Times and Time Zones

All times are in EDT time to prevent confusion due to time zone crossing. See the XOJ552 flight status page for this flight to view local times or setup timezone preferences in your user account.

Time Position Orientation Groundspeed Altitude Reporting Facility
EDT Latitude Longitude Course Direction KTS MPH feet Rate Location/Type
10:12 30.3367 -95.4022 334° Northwest 179 206 1,100  Level Houston Center
10:13 30.3050 -95.4231 210° Southwest 218 251 2,500 2,220 Climbing Houston Center
10:14 30.3550 -95.4653 324° Northwest 267 307 5,000 2,820 Climbing Houston Center
10:15 30.4283 -95.4775 352° North 258 297 8,600 2,880 Climbing Houston Center
10:16 30.5094 -95.4906 352° North 295 339 11,300 2,280 Climbing Houston Center
10:17 30.6086 -95.5081 351° North 360 414 13,300 2,340 Climbing Houston Center
10:18 30.9090 -95.8446 334° Northwest  Level FlightAware Approximate
10:18 30.7197 -95.5317 350° North 382 440 16,100  Level Houston Center
10:19 30.8017 -95.6178 318° Northwest 399 459 17,900 1,380 Climbing Houston Center
10:20 30.8858 -95.7081 317° Northwest 408 470 19,000 1,020 Climbing Houston Center
10:21 30.9906 -95.8206 317° Northwest 422 486 20,000 1,140 Climbing Houston Center
10:22 31.0792 -95.9161 317° Northwest 429 494 21,400 1,680 Climbing Houston Center
10:23 31.1806 -95.9897 328° Northwest 432 497 23,500 1,260 Climbing Houston Center
10:24 31.2989 -96.0347 342° North 448 516 24,000 720 Climbing Houston Center
10:25 31.4275 -96.0842 342° North 456 525 25,100 1,020 Climbing Houston Center
10:26 31.5458 -96.1314 341° North 449 517 26,100 1,260 Climbing Houston Center
10:27 31.6581 -96.1739 342° North 414 476 27,800 900 Climbing Houston Center
10:28 31.7700 -96.2186 341° North 420 483 28,000 60 Climbing Houston Center
10:29 31.8769 -96.3136 323° Northwest 477 549 28,000 600 Level Houston Center
10:30 31.9861 -96.4311 318° Northwest 465 535 29,300 960 Climbing Fort Worth Center
10:31 32.0767 -96.5456 313° West 477 549 30,000 1,020 Climbing Fort Worth Center
10:32 32.1611 -96.6672 309° West 477 549 31,400 2,280 Climbing Fort Worth Center
10:33 32.2533 -96.7625 319° Northwest 461 531 34,600 2,700 Climbing Fort Worth Center
10:34 32.3436 -96.8503 321° Northwest 431 496 36,800 1,680 Climbing Fort Worth Center
10:35 32.4317 -96.9458 318° Northwest 420 483 38,000 1,200 Climbing Fort Worth Center
10:36 32.5217 -97.0439 317° Northwest 425 489 39,300 1,200 Climbing Fort Worth Center
10:37 32.6056 -97.1397 316° Northwest 425 489 40,400 1,080 Climbing Fort Worth Center
10:38 32.6933 -97.2381 317° Northwest 425 489 41,500 960 Climbing Fort Worth Center
10:39 32.7811 -97.3392 316° Northwest 425 489 42,400 720 Climbing Fort Worth Center
10:40 32.8708 -97.4431 316° Northwest 430 495 43,000 300 Climbing Fort Worth Center
10:41 32.9522 -97.5297 318° Northwest 435 501 43,000  Level Fort Worth Center
10:42 33.0461 -97.6267 319° Northwest 441 507 43,000  Level Fort Worth Center
10:43 33.1356 -97.7261 317° Northwest 441 507 43,000  Level Fort Worth Center
10:44 33.2250 -97.8281 316° Northwest 446 513 43,000 120 Level Fort Worth Center
10:45 33.3144 -97.9281 317° Northwest 446 513 43,300 480 Climbing Fort Worth Center
10:46 33.4039 -98.0306 316° Northwest 446 513 44,000 600 Climbing Fort Worth Center
10:47 33.4908 -98.1283 317° Northwest 441 507 44,600 360 Climbing Fort Worth Center
10:48 33.5781 -98.2286 316° Northwest 430 495 44,800 180 Climbing Fort Worth Center
10:49 33.6650 -98.3294 316° Northwest 435 501 45,000 60 Climbing Fort Worth Center
10:50 33.7558 -98.4328 317° Northwest 441 507 45,000  Level Fort Worth Center
10:51 33.8428 -98.5364 315° West 441 507 45,000  Level Fort Worth Center
10:52 33.9336 -98.6378 317° Northwest 441 507 45,000  Level Fort Worth Center
10:53 34.0222 -98.7417 316° Northwest 446 513 45,000  Level Fort Worth Center
10:54 34.1108 -98.8483 315° West 446 513 45,000  Level Fort Worth Center
10:55 34.1992 -98.9528 316° Northwest 446 513 45,000  Level Fort Worth Center
10:56 34.2856 -99.0575 315° West 446 513 45,000  Level Fort Worth Center
10:57 34.3742 -99.1522 319° Northwest 438 504 45,000  Level Fort Worth Center
10:58 34.4622 -99.2522 317° Northwest 433 498 45,000  Level Fort Worth Center
10:59 34.5506 -99.3550 316° Northwest 434 499 45,000  Level Fort Worth Center
11:00 34.6342 -99.4628 313° West 434 499 45,000  Level Fort Worth Center
11:01 34.7222 -99.5658 316° Northwest 428 493 45,000  Level Fort Worth Center
11:04 34.9156 -99.7944 316° Northwest 437 503 45,000  Level Albuquerque Center
11:05 35.0025 -99.8986 316° Northwest 437 503 45,000  Level Albuquerque Center
11:06 35.0900 -100.0058 315° West 439 505 45,000  Level Albuquerque Center
11:07 35.1783 -100.1117 316° Northwest 442 509 45,000  Level Albuquerque Center
11:08 35.2661 -100.2181 315° West 441 507 45,000  Level Albuquerque Center
11:09 35.3536 -100.3231 316° Northwest 439 505 45,000  Level Albuquerque Center
11:10 35.4594 -100.4522 315° West 444 511 45,000  Level Albuquerque Center
11:11 35.5472 -100.5589 315° West 441 507 45,000  Level Albuquerque Center
11:12 35.6331 -100.6658 315° West 442 509 45,000  Level Albuquerque Center
11:13 35.7203 -100.7722 315° West 443 510 45,000  Level Albuquerque Center
11:14 35.8108 -100.8839 315° West 447 514 45,000  Level Albuquerque Center
11:15 35.8936 -100.9867 315° West 442 509 45,000  Level Albuquerque Center
11:16 35.9936 -101.1133 314° West 435 501 45,000  Level Albuquerque Center
11:17 36.0678 -101.2053 315° West 437 503 45,000  Level Albuquerque Center
11:18 36.1636 -101.3261 315° West 436 502 45,000  Level Albuquerque Center
11:19 36.2475 -101.4333 314° West 436 502 45,000  Level Albuquerque Center
11:20 36.3347 -101.5436 314° West 433 498 45,000  Level Albuquerque Center
11:21 36.4311 -101.6669 314° West 432 497 45,000  Level Albuquerque Center
11:22 36.5136 -101.7719 314° West 429 494 45,000  Level Albuquerque Center
11:23 36.6014 -101.8836 314° West 428 493 45,000  Level Albuquerque Center
11:24 36.6808 -101.9850 314° West 427 491 45,000  Level Albuquerque Center
11:25 36.7744 -102.1058 314° West 430 495 45,000  Level Albuquerque Center
11:26 36.8536 -102.2083 314° West 429 494 45,000  Level Albuquerque Center
11:27 36.9333 -102.3103 314° West 428 493 45,000  Level Albuquerque Center
11:28 37.0247 -102.4311 313° West 428 493 45,000  Level Albuquerque Center
11:29 37.1033 -102.5342 314° West 426 490 45,000  Level Albuquerque Center
11:30 37.1953 -102.6544 314° West 427 491 45,000  Level Albuquerque Center
11:31 37.2750 -102.7592 314° West 430 495 45,000  Level Albuquerque Center
11:33 37.3692 -102.8819 314° West 434 499 45,000  Level Albuquerque Center
11:34 37.4619 -103.0025 314° West 433 498 45,000  Level Denver Center
11:35 37.5403 -103.1075 313° West 432 497 45,000  Level Denver Center
11:36 37.6333 -103.2314 314° West 436 502 45,000  Level Denver Center
11:37 37.7125 -103.3372 313° West 435 501 45,000  Level Denver Center
11:38 37.8047 -103.4600 314° West 434 499 45,000  Level Denver Center
11:39 37.8833 -103.5672 313° West 436 502 45,000  Level Denver Center
11:40 37.9753 -103.6903 313° West 434 499 45,000  Level Denver Center
11:41 38.0803 -103.8319 313° West 435 501 45,000  Level Denver Center
11:42 38.1586 -103.9392 313° West 434 499 45,000  Level Denver Center
11:43 38.2492 -104.0633 313° West 430 495 45,000  Level Denver Center
11:44 38.3272 -104.1714 313° West 432 497 45,000  Level Denver Center
11:45 38.4033 -104.2761 313° West 433 498 45,000  Level Denver Center
11:46 38.5025 -104.4119 313° West 436 502 45,000  Level Denver Center
11:47 38.5842 -104.5283 312° West 438 504 45,000  Level Denver Center
11:49 38.6669 -104.6439 313° West 439 505 45,000  Level Denver Center
11:50 38.7661 -104.7811 313° West 437 503 45,000  Level Denver Center
11:51 38.8481 -104.8975 312° West 438 504 45,000  Level Denver Center
11:52 38.9300 -105.0128 312° West 438 504 45,000  Level Denver Center
11:53 39.0292 -105.1522 312° West 439 505 45,000  Level Denver Center
11:54 39.1103 -105.2675 312° West 435 501 45,000  Level Denver Center
11:55 39.1925 -105.3850 312° West 439 505 45,000  Level Denver Center
11:56 39.2736 -105.5017 312° West 435 501 45,000  Level Denver Center
11:57 39.3547 -105.6169 312° West 433 498 45,000  Level Denver Center
11:58 39.4353 -105.7339 312° West 435 501 45,000  Level Denver Center
11:59 39.5164 -105.8503 312° West 433 498 45,000  Level Denver Center
12:00 39.6144 -105.9908 312° West 437 503 45,000  Level Denver Center
12:01 39.6961 -106.1097 312° West 440 506 45,000  Level Denver Center
12:02 39.7611 -106.2042 312° West 439 505 45,000  Level Denver Center
12:03 39.8661 -106.3389 315° West 443 510 45,000  Level Denver Center
12:04 39.9603 -106.4419 320° Northwest 443 510 45,000  Level Denver Center
12:05 40.0647 -106.5575 320° Northwest 442 509 45,000  Level Denver Center
12:06 40.1536 -106.6583 319° Northwest 442 509 45,000  Level Denver Center
12:07 40.2567 -106.7719 320° Northwest 448 516 45,000  Level Denver Center
12:08 40.3508 -106.8753 320° Northwest 446 513 45,000  Level Denver Center
12:09 40.4553 -106.9933 319° Northwest 445 512 45,000  Level Denver Center
12:10 40.5425 -107.0881 320° Northwest 453 521 45,000  Level Denver Center
12:11 40.6547 -107.2175 319° Northwest 453 521 45,000  Level Denver Center
12:13 40.7719 -107.3517 319° Northwest 452 520 45,000  Level Denver Center
12:14 40.8475 -107.4386 319° Northwest 452 520 45,000  Level Denver Center
12:15 40.9661 -107.5761 319° Northwest 445 512 45,000  Level Denver Center
12:16 41.0572 -107.6794 319° Northwest 448 516 45,000  Level Denver Center
12:17 41.1619 -107.8011 319° Northwest 451 519 45,000  Level Denver Center
12:18 41.2525 -107.9061 319° Northwest 452 520 45,000  Level Denver Center
12:19 41.3592 -108.0306 319° Northwest 456 525 45,000  Level Denver Center
12:20 41.4500 -108.1364 319° Northwest 454 522 45,000  Level Denver Center
12:21 41.5547 -108.2597 319° Northwest 452 520 45,000  Level Denver Center
12:22 41.6292 -108.3478 319° Northwest 450 518 45,000  Level Denver Center
12:23 41.7494 -108.4911 318° Northwest 457 526 45,000  Level Denver Center
12:24 41.8394 -108.5986 318° Northwest 456 525 45,000  Level Denver Center
12:25 41.9736 -108.7614 318° Northwest 458 527 45,000  Level Salt Lake Center
12:26 42.0611 -108.8661 318° Northwest 446 513 45,000  Level Salt Lake Center
12:27 42.1625 -108.9900 318° Northwest 442 509 45,000  Level Salt Lake Center
12:28 42.2494 -109.0964 318° Northwest 442 509 45,000  Level Salt Lake Center
12:29 42.3500 -109.2208 318° Northwest 443 510 45,000  Level Salt Lake Center
12:30 42.4367 -109.3267 318° Northwest 439 505 45,000  Level Salt Lake Center
12:31 42.5372 -109.4492 318° Northwest 438 504 45,000  Level Salt Lake Center
12:32 42.6217 -109.5533 318° Northwest 432 497 45,000  Level Salt Lake Center
12:34 42.7219 -109.6778 318° Northwest 436 502 45,000  Level Salt Lake Center
12:35 42.8075 -109.7861 317° Northwest 438 504 45,000  Level Salt Lake Center
12:36 42.8992 -109.9003 318° Northwest 442 509 45,000  Level Salt Lake Center
12:37 43.0006 -110.0261 318° Northwest 442 509 45,000  Level Salt Lake Center
12:38 43.0869 -110.1350 317° Northwest 440 506 45,000  Level Salt Lake Center
12:39 43.1875 -110.2636 317° Northwest 442 509 45,000  Level Salt Lake Center
12:40 43.2839 -110.3814 318° Northwest 439 505 45,000  Level Salt Lake Center
12:41 43.3711 -110.4928 317° Northwest 446 513 45,000  Level Salt Lake Center
12:42 43.4625 -110.6133 316° Northwest 447 514 45,000  Level Salt Lake Center
12:43 43.5661 -110.7439 318° Northwest 453 521 45,000  Level Salt Lake Center
12:44 43.6533 -110.8583 317° Northwest 453 521 45,000  Level Salt Lake Center
12:45 43.7411 -110.9731 317° Northwest 452 520 45,000  Level Salt Lake Center
12:46 43.8439 -111.1083 317° Northwest 456 525 45,000  Level Salt Lake Center
12:47 43.9336 -111.2233 317° Northwest 458 527 45,000  Level Salt Lake Center
12:48 44.0364 -111.3617 316° Northwest 458 527 45,000  Level Salt Lake Center
12:49 44.1256 -111.4786 317° Northwest 458 527 45,000  Level Salt Lake Center
12:50 44.2294 -111.6172 316° Northwest 461 531 45,000  Level Salt Lake Center
12:51 44.3194 -111.7386 316° Northwest 464 534 45,000  Level Salt Lake Center
12:52 44.4108 -111.8594 317° Northwest 466 536 45,000  Level Salt Lake Center
12:53 44.5153 -111.9997 316° Northwest 464 534 45,000  Level Salt Lake Center
12:54 44.6025 -112.1178 316° Northwest 456 525 45,000  Level Salt Lake Center
12:55 44.7033 -112.2558 316° Northwest 452 520 45,000  Level Salt Lake Center
12:56 44.7908 -112.3736 316° Northwest 453 521 45,000  Level Salt Lake Center
12:57 44.8903 -112.5119 315° West 450 518 45,000  Level Salt Lake Center
12:58 44.9744 -112.6303 315° West 446 513 45,000  Level Salt Lake Center
12:59 45.0742 -112.7678 316° Northwest 449 517 45,000  Level Salt Lake Center
13:00 45.1597 -112.8864 316° Northwest 449 517 45,000  Level Salt Lake Center
13:01 45.2597 -113.0258 316° Northwest 452 520 45,000  Level Salt Lake Center
13:02 45.3444 -113.1467 315° West 452 520 45,000  Level Salt Lake Center
13:04 45.4369 -113.2772 315° West 451 519 45,000  Level Salt Lake Center
13:05 45.5256 -113.4036 315° West 450 518 45,000  Level Salt Lake Center
13:06 45.6142 -113.5303 315° West 450 518 45,000  Level Salt Lake Center
13:07 45.7011 -113.6528 315° West 457 526 45,000  Level Salt Lake Center
13:08 45.8094 -113.8089 315° West 462 532 45,000  Level Salt Lake Center
13:09 45.8994 -113.9414 314° West 465 535 45,000  Level Salt Lake Center
13:10 45.9897 -114.0714 315° West 462 532 45,000 -540 Level Salt Lake Center
13:11 46.0775 -114.2011 314° West 456 525 44,000 -1,020 Descending Salt Lake Center
13:12 46.1639 -114.3264 315° West 444 511 43,000 -1,020 Descending Salt Lake Center
13:13 46.2486 -114.4508 315° West 436 502 41,900 -1,320 Descending Salt Lake Center
13:14 46.3492 -114.6039 314° West 438 504 40,300 -1,440 Descending Salt Lake Center
13:15 46.4333 -114.7283 314° West 433 498 39,000 -1,380 Descending Salt Lake Center
13:16 46.5161 -114.8508 315° West 426 490 37,500 -1,800 Descending Salt Lake Center
13:17 46.5967 -114.9756 313° West 425 489 35,300 -2,220 Descending Salt Lake Center
13:18 46.6778 -115.0972 314° West 420 483 33,000 -2,220 Descending Salt Lake Center
13:19 46.7583 -115.2239 313° West 425 489 30,800 -2,460 Descending Salt Lake Center
13:20 46.8600 -115.3786 314° West 438 504 28,000 -2,520 Descending Salt Lake Center
13:21 46.9456 -115.5094 314° West 443 510 25,600 -2,280 Descending Salt Lake Center
13:22 47.0289 -115.6364 314° West 436 502 23,300 -2,220 Descending Salt Lake Center
13:23 47.1092 -115.7617 313° West 426 490 21,100 -2,160 Descending Salt Lake Center
13:24 47.1869 -115.8819 314° West 413 475 18,900 -2,100 Descending Salt Lake Center
13:25 47.2617 -115.9989 313° West 400 460 16,800 -1,980 Descending Salt Lake Center
13:26 47.3375 -116.1192 313° West 386 444 14,800 -1,560 Descending Salt Lake Center
13:27 47.4061 -116.2225 314° West 367 422 13,600 -1,260 Descending Salt Lake Center
13:28 47.4772 -116.3411 312° West 334 384 12,300 -1,500 Descending Salt Lake Center
13:29 47.5358 -116.4372 312° West 321 369 10,500 -1,800 Descending Salt Lake Center